Regional Weather Roundup
Issued by NWS Sterling, VA

Home | Current Version | Previous Version | Graphics & Text | Print | Product List | Glossary On
Versions: 1 2 3 4 5 6 7 8 9 10 11 12 13 14 15 16 17 18 19 20 21 22 23 24 25 26 27
000
ASUS41 KLWX 211510
RWRLWX

REGIONAL WEATHER ROUNDUP
NATIONAL WEATHER SERVICE BALTIMORE MD/WASHINGTON DC
1000 AM EST TUE FEB 21 2017

Note: "FAIR" indicates few or no clouds below 12,000 feet
with no significant weather and/or obstructions to visibility.
 TC=TEMPERATURE CELSIUS

 * =Non NWS site. Station does not report precipitation (e.g. rain,
    snow, etc.), thunder, or fog.

DCZ001-MDZ009-015-VAZ040>042-051-053>054-211600-
WASHINGTON METRO

CITY           SKY/WX    TMP DP  RH WIND       PRES   REMARKS
WASHINGTON NAT CLOUDY    47  29  49 S3        30.36F
DULLES         PTSUNNY   46  26  45 S8        30.32F
ANDREWS AFB    MOSUNNY   46  29  52 VRB3      30.33F
FT BELVOIR     MOSUNNY   46  29  50 SE6       30.35S
QUANTICO       MOSUNNY   45  33  63 S5        30.36F
COLLEGE PARK*  MOSUNNY   45  27  49 CALM      30.35R
LEESBURG*      PTSUNNY   46  30  53 MISG      30.32F
MANASSAS*      MOSUNNY   46  30  53 SE8       30.34S
GAITHERSBURG*  MOSUNNY   45  23  42 S9        30.37R

$$

MDZ006>007-011-014-211600-
BALTIMORE METRO

CITY           SKY/WX    TMP DP  RH WIND       PRES   REMARKS
BWI AIRPORT    CLOUDY    44  26  49 E7        30.34F
MD SCIENCE CTR   N/A     44  24  45 MISG      30.35F
MARTIN STATE   PTSUNNY   43  28  56 E3        30.38R
ANNAPOLIS      PTSUNNY   43  29  57 SE3       30.35S
FORT MEADE*    PTSUNNY   43  27  52 CALM      30.37S

$$

MDZ012-015-019>023-211600-
MARYLAND EASTERN SHORE

CITY           SKY/WX    TMP DP  RH WIND       PRES   REMARKS
OCEAN CITY     SUNNY     48  39  71 E9        30.35S
SALISBURY      SUNNY     49  36  61 E9        30.34S
BAY BRIDGE AP* CLOUDY    45  30  57 SE7       30.35F
EASTON*        PTSUNNY   46  32  57 SE5       30.38F

$$

MDZ017>025-211600-
SOUTHERN MARYLAND

CITY           SKY/WX    TMP DP  RH WIND       PRES   REMARKS
PATUXENT RIVER CLOUDY    42  35  76 E5        30.34S
ST INIGOES     NOT AVBL
LEONARDTOWN*   PTSUNNY   43  32  65 E5        30.36F

$$

MDZ003>005-211600-
NORTH CENTRAL MARYLAND

CITY           SKY/WX    TMP DP  RH WIND       PRES   REMARKS
FREDERICK*     SUNNY     45  27  49 VRB5      30.36S
HAGERSTOWN APT MOSUNNY   45  21  38 SE8       30.29F
WESTMINSTER*   MOSUNNY   45  25  45 S7        30.31S

$$

MDZ501>502-211600-
WESTERN MARYLAND

CITY           SKY/WX    TMP DP  RH WIND       PRES   REMARKS
OAKLAND*       CLOUDY    43  30  61 SE13      30.13F
CUMBERLAND*    PTSUNNY   50  27  40 S3        30.27F

$$

VAZ025>031-211600-
SHENANDOAH VALLEY

CITY           SKY/WX    TMP DP  RH WIND       PRES   REMARKS
WINCHESTER*    CLOUDY    45  28  53 SE6       30.27F
FRONT ROYAL*   CLOUDY    46  30  53 E3        30.26F
LURAY*         PTSUNNY   48  37  66 SW5       30.25F
NEW MARKET*    CLOUDY    50  32  50 SW8       30.24F
STAUNTON*      CLOUDY    49  32  50 S13       30.28F
WAYNESBORO*    CLOUDY    48  31  51 S5        30.27F

$$

WVZ021-048>050-054>055-211600-
EASTERN WEST VIRGINIA PANHANDLE

CITY           SKY/WX    TMP DP  RH WIND       PRES   REMARKS
MARTINSBURG    MOSUNNY   44  25  47 SE5       30.29F
PETERSBURG*    CLOUDY    46  39  78 CALM      30.20F

$$

VAZ036>039-050-211600-
CENTRAL FOOTHILLS

CITY           SKY/WX    TMP DP  RH WIND       PRES   REMARKS
CHARLOTTESVILL CLOUDY    51  33  50 CALM      30.30F
CULPEPER*      CLOUDY    48  35  59 E5        30.33F
ORANGE*        PTSUNNY   46  34  61 CALM      30.33S
GORDONSVILLE*  MOSUNNY   49  35  58 CALM      30.31S
WARRENTON*     PTSUNNY   49  28  45 SE5       30.32F

$$

VAZ055>057-211600-
NORTH AND CENTRAL PIEDMONT

CITY           SKY/WX    TMP DP  RH WIND       PRES   REMARKS
FREDERICKSBRG* MOSUNNY   46  35  65 E5        30.33F
STAFFORD*      CLOUDY    46  33  59 SE3       30.38S

$$

NCZ024-NYZ072-PAZ021-071-VAZ022-071-211600-
OTHER REGIONAL OBSERVATIONS

CITY           SKY/WX    TMP DP  RH WIND       PRES   REMARKS
NEW YORK CITY  MOSUNNY   40  20  44 CALM      30.39F
PHILADELPHIA   PTSUNNY   45  29  53 E7        30.36F
PITTSBURGH     CLOUDY    52  33  48 SE8       30.07F
ROANOKE        PTSUNNY   48  35  60 SE5       30.30F
RICHMOND       CLOUDY    48  37  65 SE5       30.33S
RALEIGH        CLOUDY    54  34  46 E7        30.28F

$$

ANZ530>537-211600-
MARINE OBSERVATIONS

STATION/POSITION TIME  TEMP    WIND        PRES
                       AIR SEA DIR/SP/G
                 (UTC) (F)     (DEG/KT/KT) (MB)
THOMAS PT LIGHT  1500   40 41   80/  5/  5   N/A
BALT KEY BRIDGE  1448   39     110/  6/  7 1028.0F
COVE POINT       1448   40     360/  2/  2 1028.0F
LEWISETTA        1448   42 46  100/  6/  7 1027.3R
SOLOMONS ISLAND  1448   41 43  100/  4/  5   N/A
PINEY POINT      1448          130/  5/  6   N/A

$$





USA.gov is the U.S. government's official web portal to all federal, state and local government web resources and services.